Location: Branche des Alpilles
(43.6087°N, 4.6976°E)
Time: 12:29:02
(UTC+00:00)

NOAA 6 - Pass Details

Date: 30 November 2020
Orbit: 773 x 786 km, 98.7° (Epoch: 26 January)

Event Time Altitude Azimuth Distance (km) Brightness Sun altitude
Rises 16:50:19 0° 170° (S) 3,254 7.4 -8.0°
Reaches altitude 10° 16:52:38 10° 172° (S) 2,328 6.7 -8.4°
Maximum altitude 16:57:45 72° 257° (WSW) 819 4.4 -9.3°
Drops below altitude 10° 17:02:54 10° 342° (NNW) 2,336 6.5 -10.2°
Sets 17:05:14 0° 345° (NNW) 3,266 7.2 -10.6°
